| time (UTC) | temp F | wind direction | speed MPH | gust MPH | rain 1hr in | rain 24hr in | rain mn in | humidity % | barometer mb |
| 20260905184602 | 85 | 159 | 4.0 | 12.0 | 0.00 | 0.24 | 0.24 | 79 | 1012.1 |
| 20260905183030 | 85 | 141 | 4.0 | 9.0 | 0.00 | 0.24 | 0.24 | 77 | 1012.3 |
| 20260905181503 | 84 | 75 | 5.0 | 11.0 | 0.01 | 0.24 | 0.24 | 77 | 1012.5 |
| 20260905180045 | 86 | 46 | 3.0 | 7.0 | 0.24 | 0.24 | 0.24 | 82 | 1012.7 |
| 20260905174520 | 84 | 340 | 3.0 | 8.0 | 0.24 | 0.24 | 0.24 | 73 | 1012.9 |
| 20260905173103 | 83 | 316 | 5.0 | 10.0 | 0.24 | 0.24 | 0.24 | 80 | 1013.1 |
| 20260905171534 | 84 | 332 | 10.0 | 13.0 | 0.23 | 0.23 | 0.23 | 78 | 1013.3 |
| 20260905170003 | 91 | 51 | 2.0 | 5.0 | 0.00 | 0.00 | 0.00 | 68 | 1013.2 |
| 20260905164536 | 91 | 118 | 2.0 | 6.0 | 0.00 | 0.00 | 0.00 | 67 | 1013.2 |
| 20260905163009 | 90 | 65 | 3.0 | 6.0 | 0.00 | 0.00 | 0.00 | 72 | 1013.3 |
| 20260905161602 | 89 | 88 | 2.0 | 7.0 | 0.00 | 0.00 | 0.00 | 75 | 1013.4 |
| 20260905160021 | 87 | 31 | 2.0 | 5.0 | 0.00 | 0.00 | 0.00 | 77 | 1013.4 |
| 20260905154618 | 87 | 10 | 1.0 | 4.0 | 0.00 | 0.00 | 0.00 | 76 | 1013.4 |
| 20260905153028 | 87 | 341 | 0.0 | 0.0 | 0.00 | 0.00 | 0.00 | 77 | 1013.4 |
| 20260905151502 | 86 | 341 | 0.0 | 4.0 | 0.00 | 0.00 | 0.00 | 78 | 1013.4 |
| 20260905150044 | 86 | 301 | 1.0 | 2.0 | 0.00 | 0.00 | 0.00 | 80 | 1013.4 |
| 20260905144510 | 86 | 300 | 1.0 | 5.0 | 0.00 | 0.00 | 0.00 | 81 | 1013.4 |
| 20260905143049 | 86 | 278 | 1.0 | 5.0 | 0.00 | 0.00 | 0.00 | 83 | 1013.5 |
| 20260905141520 | 85 | 321 | 0.0 | 3.0 | 0.00 | 0.00 | 0.00 | 86 | 1013.4 |
| 20260905134523 | 84 | 93 | 0.0 | 3.0 | 0.00 | 0.00 | 0.00 | 86 | 1013.2 |
| 20260905133106 | 83 | 94 | 0.0 | 3.0 | 0.00 | 0.00 | 0.00 | 88 | 1013.0 |
| 20260905131536 | 82 | 86 | 0.0 | 1.0 | 0.00 | 0.00 | 0.00 | 90 | 1013.1 |
| 20260905130001 | 81 | 86 | 0.0 | 3.0 | 0.00 | 0.00 | 0.00 | 91 | 1013.1 |
| 20260905124546 | 80 | 158 | 0.0 | 2.0 | 0.00 | 0.00 | 0.00 | 92 | 1013.0 |
| 20260905123019 | 80 | 196 | 0.0 | 0.0 | 0.00 | 0.00 | 0.00 | 92 | 1012.7 |
| 20260905121559 | 80 | 196 | 0.0 | 0.0 | 0.00 | 0.00 | 0.00 | 92 | 1012.6 |
| 20260905120028 | 80 | 196 | 0.0 | 3.0 | 0.00 | 0.00 | 0.00 | 91 | 1012.4 |
| 20260905114606 | 80 | 196 | 0.0 | 0.0 | 0.00 | 0.00 | 0.00 | 91 | 1012.2 |
| 20260905113037 | 80 | 196 | 0.0 | 1.0 | 0.00 | 0.00 | 0.00 | 91 | 1011.9 |
| 20260905111507 | 80 | 196 | 0.0 | 0.0 | 0.00 | 0.00 | 0.00 | 91 | 1011.8 |
| 20260905110057 | 80 | 196 | 0.0 | 0.0 | 0.00 | 0.00 | 0.00 | 91 | 1011.8 |
| 20260905104513 | 80 | 196 | 0.0 | 0.0 | 0.00 | 0.00 | 0.00 | 91 | 1011.7 |
| 20260905103053 | 80 | 196 | 0.0 | 0.0 | 0.00 | 0.00 | 0.00 | 91 | 1011.7 |
| 20260905101528 | 80 | 196 | 0.0 | 0.0 | 0.00 | 0.00 | 0.00 | 90 | 1011.8 |
| 20260905100111 | 80 | 196 | 0.0 | 0.0 | 0.00 | 0.00 | 0.00 | 90 | 1011.7 |
| 20260905094532 | 81 | 196 | 0.0 | 0.0 | 0.00 | 0.00 | 0.00 | 90 | 1011.7 |
| 20260905093010 | 81 | 196 | 0.0 | 0.0 | 0.00 | 0.00 | 0.00 | 89 | 1011.7 |
| 20260905091611 | 81 | 196 | 0.0 | 0.0 | 0.00 | 0.00 | 0.00 | 89 | 1011.7 |
| 20260905090029 | 81 | 196 | 0.0 | 2.0 | 0.00 | 0.00 | 0.00 | 89 | 1011.7 |
| 20260905084500 | 82 | 190 | 1.0 | 4.0 | 0.00 | 0.02 | 0.00 | 89 | 1011.5 |
| 20260905083043 | 82 | 195 | 1.0 | 3.0 | 0.00 | 0.02 | 0.00 | 89 | 1011.3 |
| 20260905081520 | 82 | 194 | 1.0 | 2.0 | 0.00 | 0.02 | 0.00 | 88 | 1011.4 |
| 20260905080104 | 82 | 194 | 0.0 | 3.0 | 0.00 | 0.02 | 0.00 | 88 | 1011.4 |
| 20260905074530 | 82 | 193 | 1.0 | 4.0 | 0.00 | 0.02 | 0.00 | 88 | 1011.6 |
| 20260905073110 | 82 | 188 | 1.0 | 4.0 | 0.00 | 0.02 | 0.00 | 88 | 1011.7 |
| 20260905071543 | 82 | 177 | 0.0 | 2.0 | 0.00 | 0.02 | 0.00 | 88 | 1011.9 |
| 20260905070022 | 83 | 176 | 2.0 | 5.0 | 0.00 | 0.02 | 0.00 | 88 | 1012.0 |
| 20260905064559 | 83 | 198 | 2.0 | 4.0 | 0.00 | 0.02 | 0.00 | 88 | 1012.2 |
| 20260905063035 | 83 | 191 | 1.0 | 4.0 | 0.00 | 0.02 | 0.00 | 87 | 1012.2 |
| 20260905061506 | 83 | 171 | 1.0 | 5.0 | 0.00 | 0.02 | 0.00 | 87 | 1012.4 |
| 20260905060054 | 83 | 179 | 3.0 | 8.0 | 0.00 | 0.02 | 0.00 | 87 | 1012.2 |
| 20260905054541 | 83 | 196 | 2.0 | 5.0 | 0.00 | 0.02 | 0.00 | 87 | 1012.3 |
| 20260905053104 | 83 | 181 | 3.0 | 5.0 | 0.00 | 0.02 | 0.00 | 87 | 1012.4 |
| 20260905051540 | 83 | 184 | 1.0 | 8.0 | 0.00 | 0.02 | 0.00 | 87 | 1012.3 |
| 20260905050006 | 83 | 176 | 3.0 | 8.0 | 0.00 | 0.02 | 0.00 | 86 | 1012.4 |
| 20260905044550 | 84 | 139 | 2.0 | 5.0 | 0.00 | 0.02 | 0.02 | 86 | 1012.3 |
| 20260905043018 | 84 | 147 | 1.0 | 6.0 | 0.00 | 0.02 | 0.02 | 85 | 1012.4 |
| 20260905041606 | 84 | 181 | 1.0 | 4.0 | 0.00 | 0.02 | 0.02 | 84 | 1012.5 |
| 20260905040031 | 84 | 184 | 3.0 | 6.0 | 0.00 | 0.02 | 0.02 | 84 | 1012.6 |
| 20260905034607 | 84 | 162 | 4.0 | 8.0 | 0.00 | 0.02 | 0.02 | 84 | 1012.6 |
| 20260905033049 | 84 | 147 | 3.0 | 7.0 | 0.00 | 0.02 | 0.02 | 83 | 1012.7 |
| 20260905031511 | 85 | 162 | 3.0 | 8.0 | 0.00 | 0.02 | 0.02 | 83 | 1012.8 |
| 20260905030055 | 85 | 213 | 1.0 | 9.0 | 0.00 | 0.02 | 0.02 | 82 | 1012.6 |
| 20260905024526 | 85 | 172 | 4.0 | 8.0 | 0.00 | 0.02 | 0.02 | 81 | 1012.5 |
| 20260905023106 | 86 | 177 | 1.0 | 8.0 | 0.00 | 0.02 | 0.02 | 80 | 1012.4 |
| 20260905021533 | 86 | 143 | 3.0 | 11.0 | 0.00 | 0.02 | 0.02 | 80 | 1012.2 |
| 20260905020010 | 86 | 128 | 4.0 | 8.0 | 0.00 | 0.02 | 0.02 | 80 | 1012.0 |
| 20260905014542 | 87 | 159 | 4.0 | 11.0 | 0.00 | 0.02 | 0.02 | 79 | 1012.0 |
| 20260905013009 | 87 | 156 | 5.0 | 8.0 | 0.00 | 0.02 | 0.02 | 79 | 1011.9 |
| 20260905011550 | 87 | 149 | 3.0 | 6.0 | 0.00 | 0.02 | 0.02 | 77 | 1011.6 |
| 20260905010019 | 88 | 127 | 4.0 | 9.0 | 0.00 | 0.02 | 0.02 | 76 | 1011.5 |
| 20260905004601 | 88 | 88 | 3.0 | 8.0 | 0.00 | 0.02 | 0.02 | 76 | 1011.5 |
| 20260905003030 | 88 | 157 | 2.0 | 9.0 | 0.00 | 0.02 | 0.02 | 75 | 1011.4 |
| 20260905001608 | 88 | 114 | 4.0 | 11.0 | 0.00 | 0.02 | 0.02 | 75 | 1011.1 |
| 20260905000040 | 89 | 103 | 5.0 | 10.0 | 0.00 | 0.02 | 0.02 | 74 | 1011.1 |
| 20260904234503 | 89 | 87 | 5.0 | 11.0 | 0.00 | 0.02 | 0.02 | 73 | 1011.0 |
| 20260904233042 | 90 | 112 | 6.0 | 11.0 | 0.00 | 0.02 | 0.02 | 72 | 1011.1 |
| 20260904231509 | 91 | 105 | 2.0 | 8.0 | 0.00 | 0.02 | 0.02 | 69 | 1011.0 |
| 20260904230107 | 91 | 60 | 3.0 | 7.0 | 0.00 | 0.02 | 0.02 | 70 | 1010.9 |
| 20260904224526 | 90 | 63 | 4.0 | 10.0 | 0.00 | 0.02 | 0.02 | 71 | 1010.9 |
| 20260904223002 | 90 | 91 | 3.0 | 7.0 | 0.00 | 0.02 | 0.02 | 72 | 1011.0 |
| 20260904221547 | 89 | 56 | 4.0 | 7.0 | 0.00 | 0.02 | 0.02 | 74 | 1011.1 |
| 20260904220016 | 88 | 45 | 4.0 | 8.0 | 0.00 | 0.02 | 0.02 | 75 | 1011.4 |
| 20260904214558 | 88 | 42 | 7.0 | 18.0 | 0.00 | 0.02 | 0.02 | 73 | 1011.2 |
| 20260904213030 | 90 | 48 | 6.0 | 11.0 | 0.00 | 0.02 | 0.02 | 71 | 1011.3 |
| 20260904211610 | 91 | 33 | 6.0 | 13.0 | 0.00 | 0.02 | 0.02 | 67 | 1011.6 |
| 20260904210047 | 93 | 219 | 1.0 | 10.0 | 0.00 | 0.02 | 0.02 | 61 | 1011.5 |
| 20260904204511 | 94 | 77 | 5.0 | 8.0 | 0.00 | 0.02 | 0.02 | 62 | 1011.8 |
| 20260904203055 | 93 | 175 | 2.0 | 6.0 | 0.00 | 0.02 | 0.02 | 61 | 1012.0 |
| 20260904201525 | 92 | 181 | 2.0 | 7.0 | 0.00 | 0.02 | 0.02 | 62 | 1012.2 |
| 20260904200003 | 93 | 87 | 3.0 | 6.0 | 0.00 | 0.02 | 0.02 | 62 | 1012.1 |
| 20260904194544 | 93 | 184 | 2.0 | 7.0 | 0.00 | 0.02 | 0.02 | 64 | 1012.3 |
| 20260904193009 | 91 | 150 | 2.0 | 5.0 | 0.00 | 0.02 | 0.02 | 67 | 1012.6 |
| 20260904191552 | 91 | 128 | 1.0 | 5.0 | 0.00 | 0.02 | 0.02 | 70 | 1012.8 |
| 20260904190025 | 89 | 191 | 3.0 | 7.0 | 0.00 | 0.02 | 0.02 | 74 | 1013.1 |